Year,Month,Day,Hour,Minute,Value (Times are PST for temperature in C)
2015,06,13,00,00,13.30
2015,06,13,00,01,13.20
2015,06,13,00,02,13.20
2015,06,13,00,03,13.20
2015,06,13,00,04,13.20
2015,06,13,00,05,13.20
2015,06,13,00,06,13.10
2015,06,13,00,07,13.10
2015,06,13,00,08,13.10
2015,06,13,00,09,13.10
2015,06,13,00,10,13.10
2015,06,13,00,11,13.10
2015,06,13,00,12,13.10
2015,06,13,00,13,13.10
2015,06,13,00,14,13.10
2015,06,13,00,15,13.10
2015,06,13,00,16,13.10
2015,06,13,00,17,13.10
2015,06,13,00,18,13.10
2015,06,13,00,19,13.10
2015,06,13,00,20,13.00
2015,06,13,00,21,13.00
2015,06,13,00,22,13.00
2015,06,13,00,23,13.00
2015,06,13,00,24,13.00
2015,06,13,00,25,13.00
2015,06,13,00,26,13.00
2015,06,13,00,27,12.90
2015,06,13,00,28,12.90
2015,06,13,00,29,12.90
2015,06,13,00,30,12.90
2015,06,13,00,31,12.90
2015,06,13,00,32,12.90
2015,06,13,00,33,12.80
2015,06,13,00,34,12.80
2015,06,13,00,35,12.80
2015,06,13,00,36,12.80
2015,06,13,00,37,12.70
2015,06,13,00,38,12.70
2015,06,13,00,39,12.70
2015,06,13,00,40,12.70
2015,06,13,00,41,12.70
2015,06,13,00,42,12.60
2015,06,13,00,43,12.60
2015,06,13,00,44,12.60
2015,06,13,00,45,12.60
2015,06,13,00,46,12.60
2015,06,13,00,47,12.50
2015,06,13,00,48,12.50
2015,06,13,00,49,12.50
2015,06,13,00,50,12.50
2015,06,13,00,51,12.50
2015,06,13,00,52,12.40
2015,06,13,00,53,12.40
2015,06,13,00,54,12.40
2015,06,13,00,55,12.40
2015,06,13,00,56,12.40
2015,06,13,00,57,12.30
2015,06,13,00,58,12.30
2015,06,13,00,59,12.30
2015,06,13,01,00,12.30
2015,06,13,01,01,12.30
2015,06,13,01,02,12.40
2015,06,13,01,03,12.40
2015,06,13,01,04,12.40
2015,06,13,01,05,12.40
2015,06,13,01,06,12.40
2015,06,13,01,07,12.40
2015,06,13,01,08,12.40
2015,06,13,01,09,12.40
2015,06,13,01,10,12.30
2015,06,13,01,11,12.40
2015,06,13,01,12,12.40
2015,06,13,01,13,12.40
2015,06,13,01,14,12.30
2015,06,13,01,15,12.30
2015,06,13,01,16,12.30
2015,06,13,01,17,12.30
2015,06,13,01,18,12.30
2015,06,13,01,19,12.30
2015,06,13,01,20,12.30
2015,06,13,01,21,12.30
2015,06,13,01,22,12.40
2015,06,13,01,23,12.30
2015,06,13,01,24,12.30
2015,06,13,01,25,12.30
2015,06,13,01,26,12.30
2015,06,13,01,27,12.30
2015,06,13,01,28,12.30
2015,06,13,01,29,12.30
2015,06,13,01,30,12.30
2015,06,13,01,31,12.30
2015,06,13,01,32,12.30
2015,06,13,01,33,12.30
2015,06,13,01,34,12.30
2015,06,13,01,35,12.30
2015,06,13,01,36,12.20
2015,06,13,01,37,12.20
2015,06,13,01,38,12.20
2015,06,13,01,39,12.20
2015,06,13,01,40,12.20
2015,06,13,01,41,12.10
2015,06,13,01,42,12.10
2015,06,13,01,43,12.10
2015,06,13,01,44,12.10
2015,06,13,01,45,12.10
2015,06,13,01,46,12.10
2015,06,13,01,47,12.10
2015,06,13,01,48,12.00
2015,06,13,01,49,12.00
2015,06,13,01,50,12.00
2015,06,13,01,51,12.00
2015,06,13,01,52,12.00
2015,06,13,01,53,12.00
2015,06,13,01,54,12.00
2015,06,13,01,55,12.00
2015,06,13,01,56,12.00
2015,06,13,01,57,12.00
2015,06,13,01,58,12.00
2015,06,13,01,59,12.00
2015,06,13,02,00,12.00
2015,06,13,02,01,12.00
2015,06,13,02,02,12.00
2015,06,13,02,03,12.00
2015,06,13,02,04,12.00
2015,06,13,02,05,12.00
2015,06,13,02,06,12.00
2015,06,13,02,07,12.00
2015,06,13,02,08,12.00
2015,06,13,02,09,12.00
2015,06,13,02,10,12.00
2015,06,13,02,11,12.00
2015,06,13,02,12,12.00
2015,06,13,02,13,12.00
2015,06,13,02,14,12.00
2015,06,13,02,15,12.00
2015,06,13,02,16,12.00
2015,06,13,02,17,12.00
2015,06,13,02,18,11.90
2015,06,13,02,19,11.90
2015,06,13,02,20,11.90
2015,06,13,02,21,11.90
2015,06,13,02,22,11.90
2015,06,13,02,23,11.90
2015,06,13,02,24,11.90
2015,06,13,02,25,11.90
2015,06,13,02,26,11.90
2015,06,13,02,27,11.90
2015,06,13,02,28,11.90
2015,06,13,02,29,11.90
2015,06,13,02,30,11.90
2015,06,13,02,31,11.80
2015,06,13,02,32,11.80
2015,06,13,02,33,11.80
2015,06,13,02,34,11.80
2015,06,13,02,35,11.80
2015,06,13,02,36,11.80
2015,06,13,02,37,11.80
2015,06,13,02,38,11.80
2015,06,13,02,39,11.80
2015,06,13,02,40,11.80
2015,06,13,02,41,11.80
2015,06,13,02,42,11.80
2015,06,13,02,43,11.80
2015,06,13,02,44,11.70
2015,06,13,02,45,11.70
2015,06,13,02,46,11.70
2015,06,13,02,47,11.70
2015,06,13,02,48,11.70
2015,06,13,02,49,11.70
2015,06,13,02,50,11.70
2015,06,13,02,51,11.70
2015,06,13,02,52,11.60
2015,06,13,02,53,11.70
2015,06,13,02,54,11.60
2015,06,13,02,55,11.60
2015,06,13,02,56,11.60
2015,06,13,02,57,11.60
2015,06,13,02,58,11.60
2015,06,13,02,59,11.60
2015,06,13,03,00,11.60
2015,06,13,03,01,11.60
2015,06,13,03,02,11.60
2015,06,13,03,03,11.60
2015,06,13,03,04,11.60
2015,06,13,03,05,11.60
2015,06,13,03,06,11.60
2015,06,13,03,07,11.60
2015,06,13,03,08,11.60
2015,06,13,03,09,11.60
2015,06,13,03,10,11.60
2015,06,13,03,11,11.60
2015,06,13,03,12,11.60
2015,06,13,03,13,11.60
2015,06,13,03,14,11.60
2015,06,13,03,15,11.60
2015,06,13,03,16,11.60
2015,06,13,03,17,11.60
2015,06,13,03,18,11.60
2015,06,13,03,19,11.60
2015,06,13,03,20,11.50
2015,06,13,03,21,11.50
2015,06,13,03,22,11.50
2015,06,13,03,23,11.50
2015,06,13,03,24,11.50
2015,06,13,03,25,11.50
2015,06,13,03,26,11.50
2015,06,13,03,27,11.40
2015,06,13,03,28,11.40
2015,06,13,03,29,11.40
2015,06,13,03,30,11.40
2015,06,13,03,31,11.40
2015,06,13,03,32,11.40
2015,06,13,03,33,11.40
2015,06,13,03,34,11.40
2015,06,13,03,35,11.40
2015,06,13,03,36,11.30
2015,06,13,03,37,11.30
2015,06,13,03,38,11.30
2015,06,13,03,39,11.30
2015,06,13,03,40,11.30
2015,06,13,03,41,11.30
2015,06,13,03,42,11.30
2015,06,13,03,43,11.20
2015,06,13,03,44,11.20
2015,06,13,03,45,11.20
2015,06,13,03,46,11.20
2015,06,13,03,47,11.20
2015,06,13,03,48,11.20
2015,06,13,03,49,11.20
2015,06,13,03,50,11.20
2015,06,13,03,51,11.20
2015,06,13,03,52,11.20
2015,06,13,03,53,11.20
2015,06,13,03,54,11.20
2015,06,13,03,55,11.20
2015,06,13,03,56,11.20
2015,06,13,03,57,11.20
2015,06,13,03,58,11.20
2015,06,13,03,59,11.20
2015,06,13,04,00,11.20
2015,06,13,04,01,11.10
2015,06,13,04,02,11.10
2015,06,13,04,03,11.10
2015,06,13,04,04,11.10
2015,06,13,04,05,11.10
2015,06,13,04,06,11.10
2015,06,13,04,07,11.10
2015,06,13,04,08,11.10
2015,06,13,04,09,11.10
2015,06,13,04,10,11.10
2015,06,13,04,11,11.10
2015,06,13,04,12,11.10
2015,06,13,04,13,11.00
2015,06,13,04,14,11.10
2015,06,13,04,15,11.10
2015,06,13,04,16,11.10
2015,06,13,04,17,11.10
2015,06,13,04,18,11.10
2015,06,13,04,19,11.10
2015,06,13,04,20,11.10
2015,06,13,04,21,11.10
2015,06,13,04,22,11.10
2015,06,13,04,23,11.10
2015,06,13,04,24,11.00
2015,06,13,04,25,11.00
2015,06,13,04,26,11.00
2015,06,13,04,27,11.00
2015,06,13,04,28,11.00
2015,06,13,04,29,10.90
2015,06,13,04,30,10.90
2015,06,13,04,31,10.90
2015,06,13,04,32,10.90
2015,06,13,04,33,10.90
2015,06,13,04,34,10.90
2015,06,13,04,35,10.90
2015,06,13,04,36,10.90
2015,06,13,04,37,10.90
2015,06,13,04,38,10.90
2015,06,13,04,39,10.90
2015,06,13,04,40,10.90
2015,06,13,04,41,10.90
2015,06,13,04,42,10.90
2015,06,13,04,43,10.90
2015,06,13,04,44,10.90
2015,06,13,04,45,10.90
2015,06,13,04,46,10.90
2015,06,13,04,47,10.90
2015,06,13,04,48,10.90
2015,06,13,04,49,10.90
2015,06,13,04,50,10.90
2015,06,13,04,51,10.90
2015,06,13,04,52,10.80
2015,06,13,04,53,10.80
2015,06,13,04,54,10.80
2015,06,13,04,55,10.80
2015,06,13,04,56,10.80
2015,06,13,04,57,10.80
2015,06,13,04,58,10.80
2015,06,13,04,59,10.80
2015,06,13,05,00,10.80
2015,06,13,05,01,10.80
2015,06,13,05,02,10.80
2015,06,13,05,03,10.70
2015,06,13,05,04,10.80
2015,06,13,05,05,10.80
2015,06,13,05,06,10.80
2015,06,13,05,07,10.80
2015,06,13,05,08,10.70
2015,06,13,05,09,10.70
2015,06,13,05,10,10.70
2015,06,13,05,11,10.70
2015,06,13,05,12,10.70
2015,06,13,05,13,10.70
2015,06,13,05,14,10.70
2015,06,13,05,15,10.70
2015,06,13,05,16,10.70
2015,06,13,05,17,10.70
2015,06,13,05,18,10.70
2015,06,13,05,19,10.70
2015,06,13,05,20,10.70
2015,06,13,05,21,10.70
2015,06,13,05,22,10.70
2015,06,13,05,23,10.70
2015,06,13,05,24,10.70
2015,06,13,05,25,10.70
2015,06,13,05,26,10.70
2015,06,13,05,27,10.70
2015,06,13,05,28,10.70
2015,06,13,05,29,10.70
2015,06,13,05,30,10.70
2015,06,13,05,31,10.70
2015,06,13,05,32,10.70
2015,06,13,05,33,10.70
2015,06,13,05,34,10.70
2015,06,13,05,35,10.70
2015,06,13,05,36,10.70
2015,06,13,05,37,10.70
2015,06,13,05,38,10.70
2015,06,13,05,39,10.70
2015,06,13,05,40,10.70
2015,06,13,05,41,10.70
2015,06,13,05,42,10.70
2015,06,13,05,43,10.70
2015,06,13,05,44,10.70
2015,06,13,05,45,10.80
2015,06,13,05,46,10.80
2015,06,13,05,47,10.80
2015,06,13,05,48,10.80
2015,06,13,05,49,10.80
2015,06,13,05,50,10.80
2015,06,13,05,51,10.80
2015,06,13,05,52,10.80
2015,06,13,05,53,10.80
2015,06,13,05,54,10.80
2015,06,13,05,55,10.90
2015,06,13,05,56,10.90
2015,06,13,05,57,10.90
2015,06,13,05,58,10.90
2015,06,13,05,59,10.90
2015,06,13,06,00,10.90
2015,06,13,06,01,11.00
2015,06,13,06,02,11.00
2015,06,13,06,03,11.00
2015,06,13,06,04,11.00
2015,06,13,06,05,11.00
2015,06,13,06,06,11.10
2015,06,13,06,07,11.10
2015,06,13,06,08,11.10
2015,06,13,06,09,11.10
2015,06,13,06,10,11.10
2015,06,13,06,11,11.10
2015,06,13,06,12,11.10
2015,06,13,06,13,11.20
2015,06,13,06,14,11.20
2015,06,13,06,15,11.20
2015,06,13,06,16,11.20
2015,06,13,06,17,11.20
2015,06,13,06,18,11.20
2015,06,13,06,19,11.30
2015,06,13,06,20,11.30
2015,06,13,06,21,11.30
2015,06,13,06,22,11.30
2015,06,13,06,23,11.30
2015,06,13,06,24,11.40
2015,06,13,06,25,11.40
2015,06,13,06,26,11.40
2015,06,13,06,27,11.40
2015,06,13,06,28,11.40
2015,06,13,06,29,11.40
2015,06,13,06,30,11.50
2015,06,13,06,31,11.50
2015,06,13,06,32,11.50
2015,06,13,06,33,11.60
2015,06,13,06,34,11.60
2015,06,13,06,35,11.60
2015,06,13,06,36,11.60
2015,06,13,06,37,11.70
2015,06,13,06,38,11.70
2015,06,13,06,39,11.70
2015,06,13,06,40,11.70
2015,06,13,06,41,11.70
2015,06,13,06,42,11.80
2015,06,13,06,43,11.80
2015,06,13,06,44,11.80
2015,06,13,06,45,11.80
2015,06,13,06,46,11.80
2015,06,13,06,47,11.80
2015,06,13,06,48,11.80
2015,06,13,06,49,11.90
2015,06,13,06,50,11.90
2015,06,13,06,51,11.90
2015,06,13,06,52,12.00
2015,06,13,06,53,12.00
2015,06,13,06,54,12.00
2015,06,13,06,55,12.00
2015,06,13,06,56,12.10
2015,06,13,06,57,12.10
2015,06,13,06,58,12.10
2015,06,13,06,59,12.10
2015,06,13,07,00,12.20
2015,06,13,07,01,12.20
2015,06,13,07,02,12.20
2015,06,13,07,03,12.20
2015,06,13,07,04,12.20
2015,06,13,07,05,12.20
2015,06,13,07,06,12.30
2015,06,13,07,07,12.30
2015,06,13,07,08,12.30
2015,06,13,07,09,12.30
2015,06,13,07,10,12.30
2015,06,13,07,11,12.30
2015,06,13,07,12,12.30
2015,06,13,07,13,12.40
2015,06,13,07,14,12.40
2015,06,13,07,15,12.40
2015,06,13,07,16,12.40
2015,06,13,07,17,12.50
2015,06,13,07,18,12.50
2015,06,13,07,19,12.50
2015,06,13,07,20,12.60
2015,06,13,07,21,12.60
2015,06,13,07,22,12.60
2015,06,13,07,23,12.60
2015,06,13,07,24,12.70
2015,06,13,07,25,12.70
2015,06,13,07,26,12.70
2015,06,13,07,27,12.70
2015,06,13,07,28,12.80
2015,06,13,07,29,12.80
2015,06,13,07,30,12.80
2015,06,13,07,31,12.80
2015,06,13,07,32,12.90
2015,06,13,07,33,12.90
2015,06,13,07,34,12.90
2015,06,13,07,35,12.90
2015,06,13,07,36,12.90
2015,06,13,07,37,13.00
2015,06,13,07,38,13.00
2015,06,13,07,39,13.00
2015,06,13,07,40,13.00
2015,06,13,07,41,13.00
2015,06,13,07,42,13.10
2015,06,13,07,43,13.10
2015,06,13,07,44,13.10
2015,06,13,07,45,13.10
2015,06,13,07,46,13.20
2015,06,13,07,47,13.20
2015,06,13,07,48,13.20
2015,06,13,07,49,13.20
2015,06,13,07,50,13.20
2015,06,13,07,51,13.20
2015,06,13,07,52,13.30
2015,06,13,07,53,13.30
2015,06,13,07,54,13.30
2015,06,13,07,55,13.30
2015,06,13,07,56,13.30
2015,06,13,07,57,13.40
2015,06,13,07,58,13.40
2015,06,13,07,59,13.40
2015,06,13,08,00,13.50
2015,06,13,08,01,13.50
2015,06,13,08,02,13.60
2015,06,13,08,03,13.60
2015,06,13,08,04,13.60
2015,06,13,08,05,13.70
2015,06,13,08,06,13.70
2015,06,13,08,07,13.70
2015,06,13,08,08,13.70
2015,06,13,08,09,13.70
2015,06,13,08,10,13.70
2015,06,13,08,11,13.70
2015,06,13,08,12,13.70
2015,06,13,08,13,13.80
2015,06,13,08,14,13.80
2015,06,13,08,15,13.90
2015,06,13,08,16,13.90
2015,06,13,08,17,13.90
2015,06,13,08,18,13.90
2015,06,13,08,19,13.90
2015,06,13,08,20,13.90
2015,06,13,08,21,14.00
2015,06,13,08,22,14.00
2015,06,13,08,23,14.00
2015,06,13,08,24,14.10
2015,06,13,08,25,14.10
2015,06,13,08,26,14.10
2015,06,13,08,27,14.10
2015,06,13,08,28,14.10
2015,06,13,08,29,14.10
2015,06,13,08,30,14.10
2015,06,13,08,31,14.10
2015,06,13,08,32,14.20
2015,06,13,08,33,14.20
2015,06,13,08,34,14.20
2015,06,13,08,35,14.20
2015,06,13,08,36,14.30
2015,06,13,08,37,14.30
2015,06,13,08,38,14.30
2015,06,13,08,39,14.30
2015,06,13,08,40,14.30
2015,06,13,08,41,14.30
2015,06,13,08,42,14.30
2015,06,13,08,43,14.30
2015,06,13,08,44,14.30
2015,06,13,08,45,14.30
2015,06,13,08,46,14.30
2015,06,13,08,47,14.40
2015,06,13,08,48,14.40
2015,06,13,08,49,14.40
2015,06,13,08,50,14.40
2015,06,13,08,51,14.40
2015,06,13,08,52,14.40
2015,06,13,08,53,14.30
2015,06,13,08,54,14.30
2015,06,13,08,55,14.30
2015,06,13,08,56,14.30
2015,06,13,08,57,14.30
2015,06,13,08,58,14.30
2015,06,13,08,59,14.30
2015,06,13,09,00,14.40
2015,06,13,09,01,14.40
2015,06,13,09,02,14.40
2015,06,13,09,03,14.40
2015,06,13,09,04,14.50
2015,06,13,09,05,14.50
2015,06,13,09,06,14.50
2015,06,13,09,07,14.60
2015,06,13,09,08,14.60
2015,06,13,09,09,14.70
2015,06,13,09,10,14.70
2015,06,13,09,11,14.70
2015,06,13,09,12,14.60
2015,06,13,09,13,14.60
2015,06,13,09,14,14.50
2015,06,13,09,15,14.50
2015,06,13,09,16,14.40
2015,06,13,09,17,14.30
2015,06,13,09,18,14.40
2015,06,13,09,19,14.40
2015,06,13,09,20,14.30
2015,06,13,09,21,14.30
2015,06,13,09,22,14.30
2015,06,13,09,23,14.30
2015,06,13,09,24,14.40
2015,06,13,09,25,14.40
2015,06,13,09,26,14.40
2015,06,13,09,27,14.40
2015,06,13,09,28,14.30
2015,06,13,09,29,14.20
2015,06,13,09,30,14.20
2015,06,13,09,31,14.20
2015,06,13,09,32,14.30
2015,06,13,09,33,14.20
2015,06,13,09,34,14.20
2015,06,13,09,35,14.10
2015,06,13,09,36,14.10
2015,06,13,09,37,14.10
2015,06,13,09,38,14.10
2015,06,13,09,39,14.10
2015,06,13,09,40,14.10
2015,06,13,09,41,14.10
2015,06,13,09,42,14.10
2015,06,13,09,43,14.10
2015,06,13,09,44,14.10
2015,06,13,09,45,14.20
2015,06,13,09,46,14.30
2015,06,13,09,47,14.40
2015,06,13,09,48,14.40
2015,06,13,09,49,14.40
2015,06,13,09,50,14.40
2015,06,13,09,51,14.30
2015,06,13,09,52,14.30
2015,06,13,09,53,14.30
2015,06,13,09,54,14.30
2015,06,13,09,55,14.30
2015,06,13,09,56,14.40
2015,06,13,09,57,14.40
2015,06,13,09,58,14.40
2015,06,13,09,59,14.40
2015,06,13,10,00,14.40
2015,06,13,10,01,14.50
2015,06,13,10,02,14.60
2015,06,13,10,03,14.50
2015,06,13,10,04,14.50
2015,06,13,10,05,14.60
2015,06,13,10,06,14.60
2015,06,13,10,07,14.60
2015,06,13,10,08,14.60
2015,06,13,10,09,14.60
2015,06,13,10,10,14.60
2015,06,13,10,11,14.60
2015,06,13,10,12,14.60
2015,06,13,10,13,14.70
2015,06,13,10,14,14.70
2015,06,13,10,15,14.70
2015,06,13,10,16,14.60
2015,06,13,10,17,14.70
2015,06,13,10,18,14.80
2015,06,13,10,19,14.80
2015,06,13,10,20,14.90
2015,06,13,10,21,14.90
2015,06,13,10,22,14.90
2015,06,13,10,23,14.90
2015,06,13,10,24,14.80
2015,06,13,10,25,14.90
2015,06,13,10,26,15.00
2015,06,13,10,27,15.00
2015,06,13,10,28,15.10
2015,06,13,10,29,15.10
2015,06,13,10,30,15.20
2015,06,13,10,31,15.20
2015,06,13,10,32,15.20
2015,06,13,10,33,15.20
2015,06,13,10,34,15.10
2015,06,13,10,35,15.00
2015,06,13,10,36,15.00
2015,06,13,10,37,15.00
2015,06,13,10,38,15.00
2015,06,13,10,39,15.00
2015,06,13,10,40,15.00
2015,06,13,10,41,15.00
2015,06,13,10,42,14.90
2015,06,13,10,43,14.90
2015,06,13,10,44,14.90
2015,06,13,10,45,14.90
2015,06,13,10,46,14.90
2015,06,13,10,47,15.00
2015,06,13,10,48,15.00
2015,06,13,10,49,15.00
2015,06,13,10,50,15.00
2015,06,13,10,51,14.90
2015,06,13,10,52,14.90
2015,06,13,10,53,14.80
2015,06,13,10,54,14.70
2015,06,13,10,55,14.70
2015,06,13,10,56,14.70
2015,06,13,10,57,14.80
2015,06,13,10,58,14.90
2015,06,13,10,59,15.00
2015,06,13,11,00,15.10
2015,06,13,11,01,15.10
2015,06,13,11,02,15.20
2015,06,13,11,03,15.20
2015,06,13,11,04,15.20
2015,06,13,11,05,15.20
2015,06,13,11,06,15.20
2015,06,13,11,07,15.20
2015,06,13,11,08,15.20
2015,06,13,11,09,15.10
2015,06,13,11,10,15.10
2015,06,13,11,11,15.10
2015,06,13,11,12,15.20
2015,06,13,11,13,15.10
2015,06,13,11,14,15.10
2015,06,13,11,15,15.10
2015,06,13,11,16,15.10
2015,06,13,11,17,15.10
2015,06,13,11,18,15.20
2015,06,13,11,19,15.20
2015,06,13,11,20,15.30
2015,06,13,11,21,15.30
2015,06,13,11,22,15.40
2015,06,13,11,23,15.40
2015,06,13,11,24,15.50
2015,06,13,11,25,15.60
2015,06,13,11,26,15.60
2015,06,13,11,27,15.60
2015,06,13,11,28,15.60
2015,06,13,11,29,15.60
2015,06,13,11,30,15.70
2015,06,13,11,31,15.70
2015,06,13,11,32,15.80
2015,06,13,11,33,15.90
2015,06,13,11,34,15.90
2015,06,13,11,35,15.90
2015,06,13,11,36,15.90
2015,06,13,11,37,15.80
2015,06,13,11,38,15.80
2015,06,13,11,39,15.90
2015,06,13,11,40,15.90
2015,06,13,11,41,15.80
2015,06,13,11,42,15.80
2015,06,13,11,43,15.80
2015,06,13,11,44,15.80
2015,06,13,11,45,15.80
2015,06,13,11,46,15.80
2015,06,13,11,47,15.80
2015,06,13,11,48,15.80
2015,06,13,11,49,15.80
2015,06,13,11,50,15.90
2015,06,13,11,51,15.90
2015,06,13,11,52,15.80
2015,06,13,11,53,15.80
2015,06,13,11,54,15.90
2015,06,13,11,55,15.90
2015,06,13,11,56,15.90
2015,06,13,11,57,15.90
2015,06,13,11,58,16.10
2015,06,13,11,59,16.10
2015,06,13,12,00,16.20
2015,06,13,12,01,16.20
2015,06,13,12,02,16.20
2015,06,13,12,03,16.20
2015,06,13,12,04,16.20
2015,06,13,12,05,16.20
2015,06,13,12,06,16.20
2015,06,13,12,07,16.20
2015,06,13,12,08,16.30
2015,06,13,12,09,16.30
2015,06,13,12,10,16.30
2015,06,13,12,11,16.30
2015,06,13,12,12,16.40
2015,06,13,12,13,16.50
2015,06,13,12,14,16.50
2015,06,13,12,15,16.60
2015,06,13,12,16,16.60
2015,06,13,12,17,16.60
2015,06,13,12,18,16.60
2015,06,13,12,19,16.60
2015,06,13,12,20,16.60
2015,06,13,12,21,16.70
2015,06,13,12,22,16.80
2015,06,13,12,23,16.80
2015,06,13,12,24,16.70
2015,06,13,12,25,16.70
2015,06,13,12,26,16.70
2015,06,13,12,27,16.70
2015,06,13,12,28,16.70
2015,06,13,12,29,16.80
2015,06,13,12,30,16.70
2015,06,13,12,31,16.80
2015,06,13,12,32,16.80
2015,06,13,12,33,16.80
2015,06,13,12,34,16.80
2015,06,13,12,35,16.70
2015,06,13,12,36,16.70
2015,06,13,12,37,16.80
2015,06,13,12,38,16.90
2015,06,13,12,39,16.90
2015,06,13,12,40,17.00
2015,06,13,12,41,17.10
2015,06,13,12,42,17.10
2015,06,13,12,43,17.20
2015,06,13,12,44,17.30
2015,06,13,12,45,17.30
2015,06,13,12,46,17.30
2015,06,13,12,47,17.40
2015,06,13,12,48,17.40
2015,06,13,12,49,17.40
2015,06,13,12,50,17.40
2015,06,13,12,51,17.50
2015,06,13,12,52,17.60
2015,06,13,12,53,17.70
2015,06,13,12,54,17.70
2015,06,13,12,55,17.60
2015,06,13,12,56,17.60
2015,06,13,12,57,17.60
2015,06,13,12,58,17.70
2015,06,13,12,59,17.70
2015,06,13,13,00,17.80
2015,06,13,13,01,17.80
2015,06,13,13,02,17.80
2015,06,13,13,03,17.80
2015,06,13,13,04,17.80
2015,06,13,13,05,17.80
2015,06,13,13,06,17.80
2015,06,13,13,07,17.70
2015,06,13,13,08,17.70
2015,06,13,13,09,17.70
2015,06,13,13,10,17.70
2015,06,13,13,11,17.60
2015,06,13,13,12,17.60
2015,06,13,13,13,17.60
2015,06,13,13,14,17.70
2015,06,13,13,15,17.70
2015,06,13,13,16,17.70
2015,06,13,13,17,17.60
2015,06,13,13,18,17.50
2015,06,13,13,19,17.40
2015,06,13,13,20,17.40
2015,06,13,13,21,17.40
2015,06,13,13,22,17.40
2015,06,13,13,23,17.40
2015,06,13,13,24,17.30
2015,06,13,13,25,17.30
2015,06,13,13,26,17.30
2015,06,13,13,27,17.30
2015,06,13,13,28,17.20
2015,06,13,13,29,17.30
2015,06,13,13,30,17.40
2015,06,13,13,31,17.50
2015,06,13,13,32,17.60
2015,06,13,13,33,17.60
2015,06,13,13,34,17.70
2015,06,13,13,35,17.70
2015,06,13,13,36,17.60
2015,06,13,13,37,17.60
2015,06,13,13,38,17.60
2015,06,13,13,39,17.60
2015,06,13,13,40,17.60
2015,06,13,13,41,17.60
2015,06,13,13,42,17.60
2015,06,13,13,43,17.70
2015,06,13,13,44,17.70
2015,06,13,13,45,17.80
2015,06,13,13,46,17.80
2015,06,13,13,47,17.80
2015,06,13,13,48,17.80
2015,06,13,13,49,17.90
2015,06,13,13,50,17.90
2015,06,13,13,51,17.90
2015,06,13,13,52,17.80
2015,06,13,13,53,17.70
2015,06,13,13,54,17.70
2015,06,13,13,55,17.70
2015,06,13,13,56,17.70
2015,06,13,13,57,17.70
2015,06,13,13,58,17.80
2015,06,13,13,59,17.80
2015,06,13,14,00,17.80
2015,06,13,14,01,17.80
2015,06,13,14,02,17.90
2015,06,13,14,03,18.00
2015,06,13,14,04,18.00
2015,06,13,14,05,18.20
2015,06,13,14,06,18.30
2015,06,13,14,07,18.40
2015,06,13,14,08,18.50
2015,06,13,14,09,18.70
2015,06,13,14,10,18.80
2015,06,13,14,11,18.80
2015,06,13,14,12,18.90
2015,06,13,14,13,18.90
2015,06,13,14,14,18.90
2015,06,13,14,15,18.80
2015,06,13,14,16,18.90
2015,06,13,14,17,18.80
2015,06,13,14,18,18.80
2015,06,13,14,19,18.70
2015,06,13,14,20,18.60
2015,06,13,14,21,18.50
2015,06,13,14,22,18.50
2015,06,13,14,23,18.30
2015,06,13,14,24,18.20
2015,06,13,14,25,18.10
2015,06,13,14,26,18.10
2015,06,13,14,27,18.10
2015,06,13,14,28,18.00
2015,06,13,14,29,17.90
2015,06,13,14,30,17.90
2015,06,13,14,31,17.80
2015,06,13,14,32,17.80
2015,06,13,14,33,17.80
2015,06,13,14,34,17.90
2015,06,13,14,35,17.90
2015,06,13,14,36,18.00
2015,06,13,14,37,18.10
2015,06,13,14,38,18.10
2015,06,13,14,39,18.20
2015,06,13,14,40,18.20
2015,06,13,14,41,18.20
2015,06,13,14,42,18.20
2015,06,13,14,43,18.30
2015,06,13,14,44,18.40
2015,06,13,14,45,18.50
2015,06,13,14,46,18.50
2015,06,13,14,47,18.60
2015,06,13,14,48,18.60
2015,06,13,14,49,18.60
2015,06,13,14,50,18.60
2015,06,13,14,51,18.60
2015,06,13,14,52,18.60
2015,06,13,14,53,18.60
2015,06,13,14,54,18.70
2015,06,13,14,55,18.60
2015,06,13,14,56,18.60
2015,06,13,14,57,18.60
2015,06,13,14,58,18.60
2015,06,13,14,59,18.70
2015,06,13,15,00,18.70
2015,06,13,15,01,18.80
2015,06,13,15,02,18.80
2015,06,13,15,03,18.90
2015,06,13,15,04,18.90
2015,06,13,15,05,18.90
2015,06,13,15,06,18.90
2015,06,13,15,07,18.90
2015,06,13,15,08,18.90
2015,06,13,15,09,18.90
2015,06,13,15,10,18.90
2015,06,13,15,11,18.90
2015,06,13,15,12,18.80
2015,06,13,15,13,18.80
2015,06,13,15,14,18.70
2015,06,13,15,15,18.60
2015,06,13,15,16,18.50
2015,06,13,15,17,18.40
2015,06,13,15,18,18.40
2015,06,13,15,19,18.40
2015,06,13,15,20,18.40
2015,06,13,15,21,18.40
2015,06,13,15,22,18.40
2015,06,13,15,23,18.40
2015,06,13,15,24,18.50
2015,06,13,15,25,18.50
2015,06,13,15,26,18.50
2015,06,13,15,27,18.60
2015,06,13,15,28,18.60
2015,06,13,15,29,18.60
2015,06,13,15,30,18.60
2015,06,13,15,31,18.70
2015,06,13,15,32,18.70
2015,06,13,15,33,18.80
2015,06,13,15,34,18.80
2015,06,13,15,35,18.80
2015,06,13,15,36,18.90
2015,06,13,15,37,19.00
2015,06,13,15,38,19.00
2015,06,13,15,39,19.10
2015,06,13,15,40,19.10
2015,06,13,15,41,19.00
2015,06,13,15,42,19.00
2015,06,13,15,43,19.00
2015,06,13,15,44,18.90
2015,06,13,15,45,18.90
2015,06,13,15,46,18.80
2015,06,13,15,47,18.70
2015,06,13,15,48,18.70
2015,06,13,15,49,18.70
2015,06,13,15,50,18.70
2015,06,13,15,51,18.70
2015,06,13,15,52,18.80
2015,06,13,15,53,18.90
2015,06,13,15,54,19.00
2015,06,13,15,55,19.10
2015,06,13,15,56,19.10
2015,06,13,15,57,19.20
2015,06,13,15,58,19.30
2015,06,13,15,59,19.40
2015,06,13,16,00,19.40
2015,06,13,16,01,19.40
2015,06,13,16,02,19.40
2015,06,13,16,03,19.40
2015,06,13,16,04,19.40
2015,06,13,16,05,19.40
2015,06,13,16,06,19.40
2015,06,13,16,07,19.50
2015,06,13,16,08,19.50
2015,06,13,16,09,19.60
2015,06,13,16,10,19.70
2015,06,13,16,11,19.90
2015,06,13,16,12,20.00
2015,06,13,16,13,20.20
2015,06,13,16,14,20.30
2015,06,13,16,15,20.30
2015,06,13,16,16,20.30
2015,06,13,16,17,20.30
2015,06,13,16,18,20.40
2015,06,13,16,19,20.40
2015,06,13,16,20,20.40
2015,06,13,16,21,20.40
2015,06,13,16,22,20.30
2015,06,13,16,23,20.30
2015,06,13,16,24,20.30
2015,06,13,16,25,20.30
2015,06,13,16,26,20.20
2015,06,13,16,27,20.10
2015,06,13,16,28,20.10
2015,06,13,16,29,20.20
2015,06,13,16,30,20.20
2015,06,13,16,31,20.20
2015,06,13,16,32,20.10
2015,06,13,16,33,20.10
2015,06,13,16,34,20.20
2015,06,13,16,35,20.20
2015,06,13,16,36,20.30
2015,06,13,16,37,20.30
2015,06,13,16,38,20.30
2015,06,13,16,39,20.40
2015,06,13,16,40,20.40
2015,06,13,16,41,20.40
2015,06,13,16,42,20.30
2015,06,13,16,43,20.30
2015,06,13,16,44,20.20
2015,06,13,16,45,20.10
2015,06,13,16,46,20.00
2015,06,13,16,47,20.00
2015,06,13,16,48,20.00
2015,06,13,16,49,20.10
2015,06,13,16,50,20.10
2015,06,13,16,51,20.10
2015,06,13,16,52,20.10
2015,06,13,16,53,20.10
2015,06,13,16,54,20.20
2015,06,13,16,55,20.20
2015,06,13,16,56,20.20
2015,06,13,16,57,20.30
2015,06,13,16,58,20.30
2015,06,13,16,59,20.30
2015,06,13,17,00,20.40
2015,06,13,17,01,20.40
2015,06,13,17,02,20.50
2015,06,13,17,03,20.50
2015,06,13,17,04,20.60
2015,06,13,17,05,20.60
2015,06,13,17,06,20.60
2015,06,13,17,07,20.50
2015,06,13,17,08,20.50
2015,06,13,17,09,20.40
2015,06,13,17,10,20.40
2015,06,13,17,11,20.40
2015,06,13,17,12,20.40
2015,06,13,17,13,20.40
2015,06,13,17,14,20.40
2015,06,13,17,15,20.40
2015,06,13,17,16,20.40
2015,06,13,17,17,20.50
2015,06,13,17,18,20.50
2015,06,13,17,19,20.60